Regional Weather Roundup
Issued by NWS

Home | Current Version | Previous Version | Graphics & Text | Print | Product List | Glossary On
Versions: 1 2 3 4 5 6 7 8 9 10 11 12 13 14 15 16 17 18 19 20 21 22 23 24 25 26 27 28 29 30 31 32 33 34 35 36 37 38 39 40 41 42 43 44 45 46 47 48 49 50
000
ASUS43 KDMX 291303
RWRIA

WEATHER ROUNDUP FOR IOWA
NATIONAL WEATHER SERVICE DES MOINES IA
800 AM CDT SUN MAY 29 2016

NOTE: "FAIR" INDICATES FEW OR NO CLOUDS BELOW 12,000 FEET WITH NO
SIGNIFICANT WEATHER AND/OR OBSTRUCTIONS TO VISIBILITY.

* - THESE STATIONS ARE NOT NWS STATIONS...THUS NOT UNDER NWS
QUALITY CONTROL.  THEY ALSO DO NOT REPORT WEATHER SUCH
AS PRECIPITATION OR FOG.

IAZ001>003-012>014-020>022-031>034-043>046-291400-
   NORTHWEST IOWA

CITY           SKY/WX    TMP DP  RH WIND       PRES   REMARKS
CARROLL *      SUNNY     61  59  94 W6        30.04R
CHEROKEE *     SUNNY     59  59 100 SW5       30.04R
DENISON *      SUNNY     59  57  94 W5        30.04R
LE MARS *      SUNNY     61  59  94 S7        30.05R
ORANGE CITY *  SUNNY     61  59  94 W5        30.04R
SHELDON *      SUNNY     61  61 100 W8        30.02R
SIOUX CITY     SUNNY     61  58  90 S3        30.05R
SPENCER        SUNNY     62  59  90 W10       30.02R
STORM LAKE *   SUNNY     61  59  94 W7        30.04S
$$

IAZ055>058-069>071-079>083-090>094-291400-
   SOUTHWEST IOWA

CITY           SKY/WX    TMP DP  RH WIND       PRES   REMARKS
ATLANTIC *     PTSUNNY   59  57  94 CALM      30.06S
AUDUBON *      SUNNY     61  57  88 SW5       30.06S
CLARINDA *       N/A     64  59  82 MISG      30.09R
COUNCIL BLFS * SUNNY     61  59  94 SW3       30.08R
CRESTON *      SUNNY     61  57  88 W7        30.08S
HARLAN  *      CLOUDY    59  57  94 CALM      30.10R
LAMONI         SUNNY     63  58  83 W5        30.08R
RED OAK *      PTSUNNY   61  59  94 CALM      30.08R
SHENANDOAH *   SUNNY     63  61  94 CALM      30.08R
$$

IAZ047>049-059>061-072>074-084-291400-
   CENTRAL IOWA

CITY           SKY/WX    TMP DP  RH WIND       PRES   REMARKS
AMES           SUNNY     62  60  93 W12       30.04R
ANKENY *       SUNNY     63  61  94 W10       30.04R
BOONE *        MOSUNNY   63  59  88 W10       30.03R
CHARITON *     SUNNY     63  57  82 W7        30.06R
DES MOINES     MOSUNNY   64  57  78 W6        30.05R
GRINNELL*      SUNNY     63  59  88 W9        30.04R
KNOXVILLE *    SUNNY     63  57  82 W10       30.05R
MARSHALLTOWN   SUNNY     64  61  90 W12       30.02R
NEWTON *       MOSUNNY   63  63 100 W9        30.04R
PERRY *          N/A     63  61  94 W6        30.04S
$$

IAZ004>006-015-016-023>025-035-036-291400-
   NORTH CENTRAL IOWA

CITY           SKY/WX    TMP DP  RH WIND       PRES   REMARKS
ALGONA *       SUNNY     63  59  88 W12       30.01R
CLARION *      SUNNY     63  61  94 W14       30.02R
ESTHERVILLE    MOSUNNY   62  59  90 W13       30.00R
FORT DODGE *   SUNNY     63  57  82 W9        30.04R
MASON CITY     SUNNY     63  60  90 W13       30.00R
FOREST CITY *    N/A     63  59  88 W8        30.00R
WEBSTER CITY * SUNNY     63  61  94 W10       30.01R
IOWA FALLS *     N/A     63  61  94 W13       30.03R
$$

IAZ007>011-017>019-026>030-037>042-050>054-066-291400-
   NORTHEAST IOWA

CITY           SKY/WX    TMP DP  RH WIND       PRES   REMARKS
CEDAR RAPIDS   PTSUNNY   65  62  90 W14       30.01R
CHARLES CITY * SUNNY     64  63  94 W12       29.98R
CLINTON *      CLOUDY    65  61  87 W15       30.00R
DECORAH *      MOSUNNY   64  63  94 W8        29.95R
DUBUQUE        CLOUDY    64  60  87 W10       29.98R
MONTICELLO *   PTSUNNY   66  61  82 W13G20    29.99R
OELWEIN *      MOSUNNY   64  63  94 W14       30.00R
WATERLOO       MOSUNNY   64  59  83 W12       29.99R
$$

IAZ064-065-067-068-078-291400-
   EAST CENTRAL IOWA

CITY           SKY/WX    TMP DP  RH WIND       PRES   REMARKS
DAVENPORT      CLOUDY    65  59  81 W14       30.02R
IOWA CITY      SUNNY     66  60  81 W14       30.02R
MT. PLEASANT * SUNNY     68  61  77 W8        30.04R
MUSCATINE *    CLOUDY    66  59  77 W13       30.03R
QUAD CITIES    PTSUNNY   68  59  73 W10       30.01R
$$

IAZ062-063-075>077-085>089-095>099-291400-
   SOUTHEAST IOWA

CITY           SKY/WX    TMP DP  RH WIND       PRES   REMARKS
BURLINGTON     SUNNY     66  60  81 W9        30.04R
FAIRFIELD *      N/A    N/A N/A N/A MISG        N/A
FORT MADISON * SUNNY     66  61  82 W10G16    30.05R
KEOKUK *       SUNNY     66  61  82 W8        30.05R
OSKALOOSA *      N/A     64  58  83 W12       30.05R
OTTUMWA        SUNNY     63  58  83 W10       30.05R
WASHINGTON *   MOSUNNY   64 N/A N/A W14       30.04S
$$

ABBREVIATIONS USED IN REMARKS
   TC - TEMPERATURES IN CELSIUS
  WCI - WIND CHILL INDEX
   HX - HEAT INDEX
  VSB - VISIBILITY
$$




USA.gov is the U.S. government's official web portal to all federal, state and local government web resources and services.